Weather in Kermanshah

Iran     34˚19′26″N   47˚04′24″E
temp.,
°C
wind,
m/s
gust,
m/s
humid.,
%
clouds,
%
prec.,
mm/h
press.,
hPa
HPBL,
m
2 december, wed
wed200:30+6˚se34660 0.0 102357
03:30+5˚ese34680 0.0 102238
06:30+5˚ese22640 0.0 102223
09:30+8˚e125117 0.0 1022185
12:30+11˚ese3452100 0.0 10201103
15:30+11˚ese346199 0.1 1019917
18:30+10˚ese356896 0.1 1020234
21:30+8˚ese127897 0.6 102183
3 december, thu
thu300:30+8˚e127997 1.0 1021133
03:30+6˚ene008888 1.6 102023
06:30+7˚e118489 0.3 102154
09:30+9˚ese227593 0.3 1021312
12:30+12˚sse226032 0.3 1020948
15:30+12˚s335624 0.9 10181018
18:30+9˚sse12723 0.8 102022
21:30+8˚se33781 1.0 102045
4 december, fri
fri400:30+8˚se34810 0.1 102065
03:30+7˚ese238215 0.1 102024
06:30+6˚ene128448 0.0 102022
09:30+9˚e236533 0.0 1020248
12:30+13˚sse57458 0.0 10181717
15:30+13˚s55434 0.0 10171714
18:30+10˚se11550 0.0 101822
21:30+8˚sse34490 0.0 101833
5 december, sat
sat500:30+7˚se336942 0.0 101828
03:30+6˚se237471 0.0 101724
06:30+6˚se3471100 0.0 101736
09:30+9˚se3459100 0.0 1017250
12:30+12˚sse2445100 0.0 10151546
15:30+12˚sse2251100 0.3 10131181
18:30+9˚se3371100 0.4 101467
21:30+8˚ese2275100 0.4 101422
6 december, sun
sun600:30+7˚ene0177100 0.3 101422
03:30+7˚se3584100 1.0 1013173
06:30+5˚ese228648 0.1 101424
09:30+8˚e227540 0.1 1015313
12:30+10˚ne22602 0.8 1013943
15:30+10˚n226034 2.0 1012695
18:30+8˚nne227028 0.3 101439
21:30+6˚nne117415 0.3 101624